GW4214 Weather Reports


Display with metric or nautical units.
time (UTC)temp
F
wind
direction
speed
MPH
gust
MPH
rain 1hr
in
rain 24hr
in
rain mn
in
humidity
%
barometer
mb
20260509045110 60 224 0.0 1.0 0.00 0.00 0.00 74 1024.3
20260509044607 60 245 2.0 2.0 0.00 0.00 0.00 73 1024.3
20260509044104 60 278 3.0 5.0 0.00 0.00 0.00 73 1024.3
20260509043601 61 240 1.0 1.0 0.00 0.00 0.00 73 1024.3
20260509043057 60 221 0.0 0.0 0.00 0.00 0.00 73 1024.3
20260509042553 61 221 0.0 1.0 0.00 0.00 0.00 73 1024.3
20260509042049 61 214 0.0 0.0 0.00 0.00 0.00 72 1024.0
20260509041546 61 224 2.0 2.0 0.00 0.00 0.00 72 1024.0
20260509041044 62 306 0.0 0.0 0.00 0.00 0.00 71 1024.0
20260509040542 62 250 0.0 0.0 0.00 0.00 0.00 71 1024.0
20260509040038 62 231 2.0 3.0 0.00 0.00 0.00 70 1024.0
20260509035535 62 246 3.0 3.0 0.00 0.00 0.00 70 1024.0
20260509035032 62 279 0.0 0.0 0.00 0.00 0.00 70 1024.0
20260509034530 62 297 0.0 0.0 0.00 0.00 0.00 70 1024.0
20260509034027 63 239 2.0 2.0 0.00 0.00 0.00 70 1024.0
20260509033524 63 232 1.0 2.0 0.00 0.00 0.00 70 1024.0
20260509033021 63 240 4.0 5.0 0.00 0.00 0.00 69 1023.7
20260509032518 64 274 2.0 2.0 0.00 0.00 0.00 69 1024.0
20260509032015 64 244 1.0 2.0 0.00 0.00 0.00 68 1023.7
20260509031512 64 213 2.0 2.0 0.00 0.00 0.00 67 1023.7
20260509031010 64 237 4.0 5.0 0.00 0.00 0.00 67 1023.7
20260509030508 64 312 5.0 7.0 0.00 0.00 0.00 66 1023.7
20260509030004 65 287 3.0 7.0 0.00 0.00 0.00 65 1023.7
20260509025500 66 278 3.0 3.0 0.00 0.00 0.00 64 1023.7
20260509024956 66 335 0.0 0.0 0.00 0.00 0.00 64 1023.7
20260509024452 66 330 5.0 7.0 0.00 0.00 0.00 63 1023.7
20260509023949 66 266 0.0 0.0 0.00 0.00 0.00 62 1023.7
20260509023446 67 289 0.0 0.0 0.00 0.00 0.00 60 1023.3
20260509022943 67 321 0.0 0.0 0.00 0.00 0.00 61 1023.3
20260509022440 68 80 0.0 0.0 0.00 0.00 0.00 59 1023.3
20260509021937 68 338 2.0 3.0 0.00 0.00 0.00 59 1023.7
20260509021434 69 293 0.0 0.0 0.00 0.00 0.00 57 1023.7
20260509020932 68 269 0.0 0.0 0.00 0.00 0.00 59 1023.7
20260509020430 68 297 0.0 0.0 0.00 0.00 0.00 58 1023.3
20260509015926 68 325 0.0 1.0 0.00 0.00 0.00 58 1023.3
20260509015426 67 222 0.0 0.0 0.00 0.00 0.00 60 1023.3
20260509014922 68 213 0.0 0.0 0.00 0.00 0.00 59 1023.3
20260509014418 67 169 0.0 0.0 0.00 0.00 0.00 59 1023.3
20260509013915 68 246 1.0 2.0 0.00 0.00 0.00 59 1023.3
20260509013412 68 319 3.0 5.0 0.00 0.00 0.00 58 1023.3
20260509012907 68 214 0.0 0.0 0.00 0.00 0.00 58 1023.3
20260509012404 68 225 0.0 0.0 0.00 0.00 0.00 58 1023.3
20260509011901 68 213 0.0 0.0 0.00 0.00 0.00 57 1023.7
20260509011359 68 221 0.0 0.0 0.00 0.00 0.00 58 1023.7
20260509010857 68 287 0.0 0.0 0.00 0.00 0.00 58 1023.7
20260509010354 68 292 5.0 7.0 0.00 0.00 0.00 57 1023.7
20260509005845 69 295 3.0 6.0 0.00 0.00 0.00 56 1024.0
20260509005343 68 215 0.0 0.0 0.00 0.00 0.00 57 1023.7
20260509004843 68 145 0.0 0.0 0.00 0.00 0.00 58 1024.0
20260509004339 69 226 0.0 0.0 0.00 0.00 0.00 57 1023.7
20260509003837 68 194 0.0 0.0 0.00 0.00 0.00 58 1024.0
20260509003335 68 225 0.0 0.0 0.00 0.00 0.00 58 1024.0
20260509002832 69 228 0.0 0.0 0.00 0.00 0.00 57 1023.7
20260509002329 68 210 0.0 0.0 0.00 0.00 0.00 56 1024.0
20260509001827 69 273 1.0 2.0 0.00 0.00 0.00 56 1023.7
20260509001322 68 338 0.0 1.0 0.00 0.00 0.00 55 1024.0
20260509000820 69 220 0.0 0.0 0.00 0.00 0.00 56 1023.7
20260509000318 70 299 2.0 5.0 0.00 0.00 0.00 54 1024.0
20260508235814 71 347 2.0 3.0 0.00 0.00 0.00 54 1024.0
20260508235311 70 209 0.0 0.0 0.00 0.00 0.00 52 1024.0
20260508234808 70 223 0.0 0.0 0.00 0.00 0.00 55 1024.0
20260508234304 70 312 3.0 5.0 0.00 0.00 0.00 53 1024.0
20260508233803 69 216 0.0 0.0 0.00 0.00 0.00 54 1024.0
20260508233302 69 297 0.0 0.0 0.00 0.00 0.00 53 1024.0
20260508232759 69 243 0.0 0.0 0.00 0.00 0.00 54 1024.0
20260508232255 70 199 2.0 3.0 0.00 0.00 0.00 52 1024.0
20260508231753 68 205 0.0 0.0 0.00 0.00 0.00 52 1024.0
20260508231249 70 192 2.0 6.0 0.00 0.00 0.00 53 1024.0
20260508230746 70 206 0.0 0.0 0.00 0.00 0.00 51 1024.0
20260508230242 70 219 0.0 0.0 0.00 0.00 0.00 51 1024.0
20260508225740 69 214 0.0 0.0 0.00 0.00 0.00 52 1024.0
20260508225237 70 191 0.0 0.0 0.00 0.00 0.00 51 1024.0
20260508224734 71 208 0.0 0.0 0.00 0.00 0.00 50 1024.0
20260508224232 70 218 0.0 0.0 0.00 0.00 0.00 49 1024.3
20260508223730 68 224 0.0 0.0 0.00 0.00 0.00 52 1024.0
20260508223226 67 208 1.0 5.0 0.00 0.00 0.00 55 1024.0
20260508222724 69 171 3.0 5.0 0.00 0.00 0.00 53 1024.0
20260508222221 69 215 0.0 0.0 0.00 0.00 0.00 50 1024.0
20260508221717 68 163 0.0 0.0 0.00 0.00 0.00 51 1024.3
20260508221213 68 218 0.0 0.0 0.00 0.00 0.00 53 1024.3
20260508220710 69 222 4.0 6.0 0.00 0.00 0.00 49 1024.3
20260508220207 68 194 0.0 1.0 0.00 0.00 0.00 51 1024.3
20260508215703 68 199 0.0 0.0 0.00 0.00 0.00 51 1024.3
20260508215159 69 231 1.0 5.0 0.00 0.00 0.00 50 1024.3
20260508214657 67 225 0.0 0.0 0.00 0.00 0.00 52 1024.7
20260508214154 67 219 0.0 0.0 0.00 0.00 0.00 53 1024.7
20260508213650 66 201 0.0 0.0 0.00 0.00 0.00 56 1024.3
20260508213146 67 170 1.0 3.0 0.00 0.00 0.00 55 1024.3
20260508212643 66 226 0.0 0.0 0.00 0.00 0.00 54 1024.3
20260508212140 67 209 0.0 0.0 0.00 0.00 0.00 55 1024.3
20260508211635 68 214 1.0 2.0 0.00 0.00 0.00 54 1024.3
20260508211132 68 221 0.0 0.0 0.00 0.00 0.00 50 1024.0
20260508210628 68 329 0.0 0.0 0.00 0.00 0.00 52 1024.0
20260508210126 67 247 0.0 0.0 0.00 0.00 0.00 51 1024.7
20260508205623 66 227 0.0 0.0 0.00 0.00 0.00 55 1024.3
20260508205119 66 226 0.0 0.0 0.00 0.00 0.00 54 1024.7
20260508204615 66 240 0.0 0.0 0.00 0.00 0.00 55 1024.3
20260508204111 67 232 0.0 0.0 0.00 0.00 0.00 54 1024.3
20260508203607 66 194 0.0 0.0 0.00 0.00 0.00 55 1024.7
20260508203104 65 260 0.0 0.0 0.00 0.00 0.00 54 1024.7
20260508202600 65 175 0.0 0.0 0.00 0.00 0.00 55 1024.3
20260508202058 64 213 0.0 0.0 0.00 0.00 0.00 57 1024.3
20260508201554 65 187 4.0 7.0 0.00 0.00 0.00 56 1024.7
20260508201051 66 201 0.0 0.0 0.00 0.00 0.00 55 1024.7
20260508200548 65 281 0.0 1.0 0.00 0.00 0.00 55 1024.7
20260508200043 64 228 0.0 0.0 0.00 0.00 0.00 56 1025.0
20260508195540 62 12 4.0 7.0 0.00 0.00 0.00 60 1024.7
20260508195036 62 253 0.0 0.0 0.00 0.00 0.00 58 1024.7
20260508194534 62 197 0.0 0.0 0.00 0.00 0.00 61 1025.0
20260508194031 62 215 0.0 1.0 0.00 0.00 0.00 59 1025.0
20260508193527 62 187 3.0 5.0 0.00 0.00 0.00 61 1025.0
20260508193024 62 181 0.0 0.0 0.00 0.00 0.00 59 1025.0
20260508192521 62 207 2.0 5.0 0.00 0.00 0.00 61 1025.0
20260508192018 64 189 0.0 0.0 0.00 0.00 0.00 59 1024.7
20260508191515 64 207 0.0 0.0 0.00 0.00 0.00 56 1025.0
20260508191011 62 249 0.0 0.0 0.00 0.00 0.00 60 1024.7
20260508190509 62 322 2.0 3.0 0.00 0.00 0.00 60 1024.7
20260508190005 61 214 0.0 1.0 0.00 0.00 0.00 62 1024.7
20260508185502 60 175 0.0 1.0 0.00 0.00 0.00 65 1024.7
20260508185000 60 140 1.0 6.0 0.00 0.00 0.00 64 1025.0
20260508184457 61 191 0.0 0.0 0.00 0.00 0.00 65 1025.0
20260508183954 59 249 0.0 0.0 0.00 0.00 0.00 65 1025.0
20260508183451 59 184 5.0 6.0 0.00 0.00 0.00 65 1025.0
20260508182946 60 201 2.0 2.0 0.00 0.00 0.00 64 1025.0
20260508182443 61 207 0.0 0.0 0.00 0.00 0.00 64 1025.0
20260508181943 60 208 0.0 0.0 0.00 0.00 0.00 62 1025.0
20260508181440 60 226 7.0 9.0 0.00 0.00 0.00 65 1025.0
20260508180938 62 115 5.0 6.0 0.00 0.00 0.00 62 1025.0
20260508180435 59 213 0.0 0.0 0.00 0.00 0.00 65 1024.7
20260508175930 58 207 0.0 0.0 0.00 0.00 0.00 67 1024.7
20260508175427 58 201 2.0 3.0 0.00 0.00 0.00 67 1024.7
20260508174925 57 167 5.0 6.0 0.00 0.00 0.00 68 1025.0
20260508174423 57 187 5.0 6.0 0.00 0.00 0.00 67 1024.7
20260508173919 56 197 2.0 2.0 0.00 0.00 0.00 72 1024.7
20260508173416 57 219 0.0 0.0 0.00 0.00 0.00 71 1024.7
20260508172912 57 218 0.0 0.0 0.00 0.00 0.00 70 1024.7
20260508172410 55 200 0.0 2.0 0.00 0.00 0.00 71 1024.7
20260508171905 55 172 4.0 6.0 0.00 0.00 0.00 72 1024.7
20260508171402 55 205 3.0 3.0 0.00 0.00 0.00 74 1024.7
20260508170859 55 200 3.0 5.0 0.00 0.00 0.00 74 1024.7
20260508170357 55 226 4.0 5.0 0.00 0.00 0.00 73 1024.7
20260508165853 55 173 8.0 9.0 0.00 0.00 0.00 73 1024.7
20260508165351 55 199 2.0 2.0 0.00 0.00 0.00 75 1024.7
20260508164846 55 186 3.0 5.0 0.00 0.00 0.00 74 1024.7
20260508164343 54 205 6.0 7.0 0.00 0.00 0.00 76 1024.3
20260508163841 54 168 1.0 2.0 0.00 0.00 0.00 76 1024.3
20260508163339 54 227 4.0 5.0 0.00 0.00 0.00 76 1024.7
20260508162834 54 102 0.0 0.0 0.00 0.00 0.00 76 1024.3
20260508162331 53 198 3.0 3.0 0.00 0.00 0.00 77 1024.0
20260508161823 53 155 2.0 3.0 0.00 0.00 0.00 78 1024.0
20260508161320 54 219 1.0 3.0 0.00 0.00 0.00 80 1024.0
20260508160818 53 179 0.0 0.0 0.00 0.00 0.00 79 1024.0
20260508160316 53 115 3.0 5.0 0.00 0.00 0.00 80 1023.7
20260508155812 53 172 3.0 5.0 0.00 0.00 0.00 80 1024.0
20260508155309 52 140 3.0 3.0 0.00 0.00 0.00 82 1024.0
20260508154806 52 174 4.0 5.0 0.00 0.00 0.00 83 1024.3
20260508154304 51 173 3.0 3.0 0.00 0.00 0.00 83 1024.3
20260508153800 51 157 4.0 6.0 0.00 0.00 0.00 83 1024.0
20260508153258 51 154 3.0 3.0 0.00 0.00 0.00 85 1024.0
20260508152754 52 171 4.0 6.0 0.00 0.00 0.00 85 1024.0
20260508152250 52 191 3.0 6.0 0.00 0.00 0.00 85 1024.0
20260508151746 51 109 5.0 6.0 0.00 0.00 0.00 86 1024.0
20260508151243 51 182 2.0 3.0 0.00 0.00 0.00 86 1023.7
20260508150740 50 185 2.0 2.0 0.00 0.00 0.00 86 1024.0
20260508150237 50 196 4.0 6.0 0.00 0.00 0.00 86 1024.0
20260508145732 50 131 4.0 5.0 0.00 0.00 0.00 86 1024.0
20260508145228 50 183 2.0 2.0 0.00 0.00 0.00 86 1023.7
20260508144725 50 188 4.0 5.0 0.00 0.00 0.00 86 1024.0
20260508144223 50 212 2.0 3.0 0.00 0.00 0.00 86 1024.0
20260508143715 50 176 4.0 5.0 0.00 0.00 0.00 86 1024.0
20260508143212 50 155 3.0 3.0 0.00 0.00 0.00 85 1024.3
20260508142708 50 187 2.0 3.0 0.00 0.00 0.00 85 1024.0
20260508142205 51 139 3.0 3.0 0.00 0.00 0.00 84 1024.0
20260508141701 51 193 2.0 2.0 0.00 0.00 0.00 82 1024.0
20260508141159 51 198 2.0 2.0 0.00 0.00 0.00 82 1024.0
20260508140656 50 199 1.0 1.0 0.00 0.00 0.00 83 1024.0
20260508140153 50 181 1.0 1.0 0.00 0.00 0.00 84 1024.0
20260508135649 50 203 3.0 3.0 0.00 0.00 0.00 85 1024.0
20260508135144 49 194 1.0 1.0 0.00 0.00 0.00 86 1024.0
20260508134641 49 202 1.0 1.0 0.00 0.00 0.00 87 1024.0
20260508134138 48 204 0.0 0.0 0.00 0.00 0.00 87 1023.7
20260508133635 48 198 1.0 1.0 0.00 0.00 0.00 88 1023.7
20260508133132 48 190 2.0 2.0 0.00 0.00 0.00 88 1023.3
20260508132630 48 193 1.0 1.0 0.00 0.00 0.00 88 1023.3
20260508132127 48 190 1.0 1.0 0.00 0.00 0.00 88 1023.3
20260508131623 48 204 0.0 0.0 0.00 0.00 0.00 88 1023.0
20260508131120 48 199 0.0 0.0 0.00 0.00 0.00 88 1023.3
20260508130616 48 209 0.0 0.0 0.00 0.00 0.00 88 1023.0
20260508130114 48 206 0.0 0.0 0.00 0.00 0.00 88 1023.0
20260508125614 48 222 3.0 3.0 0.00 0.00 0.00 88 1023.0
20260508125112 48 206 1.0 1.0 0.00 0.00 0.00 88 1023.0
20260508124610 48 202 1.0 2.0 0.00 0.00 0.00 88 1022.6
20260508124106 48 208 1.0 1.0 0.00 0.00 0.00 87 1022.6
20260508123605 48 202 1.0 1.0 0.00 0.00 0.00 87 1022.6
20260508123102 49 202 1.0 1.0 0.00 0.00 0.00 87 1022.3
20260508122558 49 203 0.0 0.0 0.00 0.00 0.00 87 1022.6
20260508122055 49 213 0.0 0.0 0.00 0.00 0.00 86 1022.0
20260508121554 49 208 0.0 0.0 0.00 0.00 0.00 86 1022.3
20260508121051 49 200 1.0 1.0 0.00 0.00 0.00 86 1022.0
20260508120548 49 207 0.0 0.0 0.00 0.00 0.00 86 1022.0
20260508120047 49 193 2.0 2.0 0.00 0.00 0.00 86 1022.3
20260508115544 49 206 1.0 1.0 0.00 0.00 0.00 86 1022.0
20260508115040 49 219 2.0 2.0 0.00 0.00 0.00 85 1022.0
20260508114537 49 209 1.0 1.0 0.00 0.00 0.00 85 1022.0
20260508114033 50 209 0.0 0.0 0.00 0.00 0.00 85 1022.0
20260508113531 50 227 1.0 2.0 0.00 0.00 0.00 85 1022.0
20260508113029 50 198 2.0 2.0 0.00 0.00 0.00 84 1022.0
20260508112525 50 211 1.0 2.0 0.00 0.00 0.00 84 1021.6
20260508112022 50 208 0.0 0.0 0.00 0.00 0.00 83 1022.0
20260508111519 50 215 3.0 3.0 0.00 0.00 0.00 83 1022.0
20260508111015 50 185 1.0 2.0 0.00 0.00 0.00 82 1021.6
20260508110514 50 221 3.0 7.0 0.00 0.00 0.00 82 1021.6
20260508110009 50 197 2.0 3.0 0.00 0.00 0.00 82 1021.3
20260508105504 50 217 2.0 2.0 0.00 0.00 0.00 82 1021.6
20260508105002 50 192 3.0 3.0 0.00 0.00 0.00 82 1021.3
20260508104500 50 217 0.0 1.0 0.00 0.00 0.00 82 1021.3
20260508103956 50 214 0.0 0.0 0.00 0.00 0.00 82 1021.3
20260508103453 50 211 0.0 0.0 0.00 0.00 0.00 82 1021.3
20260508102949 50 200 1.0 2.0 0.00 0.00 0.00 83 1020.9
20260508102448 50 217 1.0 2.0 0.00 0.00 0.00 83 1021.3
20260508101945 50 176 3.0 5.0 0.00 0.00 0.00 83 1021.3
20260508101443 50 199 1.0 1.0 0.00 0.00 0.00 83 1021.3
20260508100939 50 217 0.0 1.0 0.00 0.00 0.00 83 1020.9
20260508100438 50 213 0.0 1.0 0.00 0.00 0.00 83 1021.3
20260508095934 50 217 0.0 1.0 0.00 0.00 0.00 83 1020.9
20260508095432 50 213 0.0 0.0 0.00 0.00 0.00 83 1020.9
20260508094928 51 213 0.0 0.0 0.00 0.00 0.00 83 1020.9
20260508094425 51 218 0.0 0.0 0.00 0.00 0.00 82 1020.6
20260508093922 51 207 1.0 2.0 0.00 0.00 0.00 82 1020.6
20260508093420 51 213 0.0 0.0 0.00 0.00 0.00 82 1020.6
20260508092917 51 212 0.0 0.0 0.00 0.00 0.00 82 1020.6
20260508092415 51 217 1.0 1.0 0.00 0.00 0.00 82 1020.3
20260508091913 51 214 0.0 0.0 0.00 0.00 0.00 82 1020.3
20260508091409 51 206 0.0 0.0 0.00 0.00 0.00 82 1020.3
20260508090907 51 205 0.0 0.0 0.00 0.00 0.00 82 1020.6
20260508090405 51 211 0.0 0.0 0.00 0.00 0.00 82 1020.3
20260508085900 51 214 0.0 0.0 0.00 0.00 0.00 81 1020.3
20260508085357 52 206 0.0 1.0 0.00 0.00 0.00 81 1020.3
20260508084854 51 220 1.0 1.0 0.00 0.00 0.00 81 1020.3
20260508084350 51 209 0.0 1.0 0.00 0.00 0.00 81 1020.3
20260508083849 51 199 1.0 1.0 0.00 0.00 0.00 81 1020.3
20260508083346 51 215 0.0 0.0 0.00 0.00 0.00 80 1020.3
20260508082845 52 204 0.0 1.0 0.00 0.00 0.00 80 1020.3
20260508082343 52 211 0.0 0.0 0.00 0.00 0.00 80 1019.9
20260508081840 52 210 1.0 1.0 0.00 0.00 0.00 79 1020.3
20260508081337 52 212 0.0 0.0 0.00 0.00 0.00 78 1019.9
20260508080834 53 210 0.0 0.0 0.00 0.00 0.00 78 1020.3
20260508080332 53 214 0.0 0.0 0.00 0.00 0.00 78 1019.9
20260508075828 53 214 0.0 0.0 0.00 0.00 0.00 77 1020.3
20260508075325 53 211 1.0 1.0 0.00 0.00 0.00 77 1019.9
20260508074823 53 212 0.0 0.0 0.00 0.00 0.00 78 1020.3
20260508074320 54 210 0.0 1.0 0.00 0.00 0.00 78 1019.9
20260508073817 54 212 0.0 1.0 0.00 0.00 0.00 78 1019.9
20260508073315 54 214 0.0 0.0 0.00 0.00 0.00 78 1019.9
20260508072811 54 203 1.0 1.0 0.00 0.00 0.00 78 1019.6
20260508072308 54 204 1.0 1.0 0.00 0.00 0.00 78 1019.6
20260508071805 54 202 1.0 1.0 0.00 0.00 0.00 78 1019.6
20260508071303 54 205 0.0 0.0 0.00 0.00 0.00 78 1019.6
20260508070800 54 201 0.0 0.0 0.00 0.00 0.00 78 1019.6
20260508070259 54 208 0.0 0.0 0.00 0.00 0.00 77 1019.6
20260508065756 54 209 0.0 0.0 0.00 0.00 0.00 77 1019.6
20260508065254 55 204 1.0 1.0 0.00 0.00 0.00 77 1019.6
20260508064752 55 206 1.0 1.0 0.00 0.00 0.00 76 1019.6
20260508064249 55 213 0.0 0.0 0.00 0.00 0.00 75 1019.6
20260508063746 55 224 1.0 2.0 0.00 0.00 0.00 76 1019.6
20260508063244 55 208 0.0 0.0 0.00 0.00 0.00 76 1019.6
20260508062741 55 212 0.0 0.0 0.00 0.00 0.00 75 1019.6
20260508062239 55 213 0.0 0.0 0.00 0.00 0.00 74 1019.6
20260508061735 56 213 0.0 0.0 0.00 0.00 0.00 74 1019.6
20260508061233 56 213 0.0 0.0 0.00 0.00 0.00 74 1019.3
20260508060729 56 210 0.0 0.0 0.00 0.00 0.00 73 1019.6
20260508060227 56 211 0.0 0.0 0.00 0.00 0.00 73 1019.6
20260508055722 57 212 0.0 0.0 0.00 0.00 0.00 72 1019.6
20260508055220 57 210 0.0 1.0 0.00 0.00 0.00 72 1019.6
20260508054716 57 212 0.0 0.0 0.00 0.00 0.00 71 1019.6
20260508054214 57 212 0.0 0.0 0.00 0.00 0.00 71 1019.6
20260508053710 57 210 0.0 0.0 0.00 0.00 0.00 70 1019.6
20260508053208 57 220 1.0 2.0 0.00 0.00 0.00 70 1019.3
20260508052705 58 213 0.0 0.0 0.00 0.00 0.00 69 1019.6
20260508052202 58 219 1.0 1.0 0.00 0.00 0.00 68 1019.3
20260508051658 58 216 1.0 1.0 0.00 0.00 0.00 68 1019.6
20260508051154 58 213 0.0 0.0 0.00 0.00 0.00 68 1019.6
20260508050650 58 215 0.0 0.0 0.00 0.00 0.00 68 1019.6
20260508050148 58 216 0.0 0.0 0.00 0.00 0.00 68 1019.3
20260508045643 59 216 0.0 0.0 0.00 0.00 0.00 67 1019.3